Simultaneous Nadir Overpasses (SNOs) Predictions

Prediction of SNOs between GOES-15 and NOAA-20 Satellite Orbit:

Table of predicted SNOs for the next 14.0 days since TLE Epoch: 6/8/2024
Index Date Time (GOES-15) GOES-15 Lat,Lon NOAA-20 Lat,Lon Distance(km) Time Diff (sec)
1 06/08/2024 09:21:17 0.07, 61.41 -0.09, 60.56 96.41 80
2 06/09/2024 09:05:10 0.05, 61.40 0.91, 65.10 422.66 80
3 06/10/2024 21:24:14 -0.08, 61.42 0.24, 59.84 179.67 80
4 06/11/2024 21:08:06 -0.07, 61.41 -0.71, 64.40 339.49 80
5 06/13/2024 09:27:19 0.10, 61.35 -0.40, 59.09 257.74 80
6 06/14/2024 09:11:11 0.08, 61.34 0.61, 63.63 261.31 80
7 06/15/2024 21:30:15 -0.11, 61.37 0.58, 58.38 341.33 80
8 06/16/2024 21:14:07 -0.10, 61.36 -0.43, 62.92 177.47 80
9 06/18/2024 09:33:20 0.13, 61.30 -0.72, 57.62 420.58 80
10 06/19/2024 09:17:12 0.12, 61.30 0.30, 62.16 97.74 80
11 06/21/2024 21:20:09 -0.14, 61.34 -0.19, 61.43 11.95 80
